Location: *
(46.3500°N, 10.9000°E)
Time: 20:00:16
(UTC+00:00)

Transit 2A Rocket - All Passes

Search period start: 19 April 2021 00:00
Search period end: 29 April 2021 00:00
Orbit: 594 x 908 km, 66.7° (Epoch: 19 April)

Date Brightness Start Highest point End Pass type
(mag) Time Alt. Az. Time Alt. Az. Time Alt. Az.
19 Apr - 00:17:55 10° NW 00:22:00 33° WSW 00:26:17 10° S visible
19 Apr - 13:16:08 10° SE 13:17:29 11° ESE 13:18:50 10° E daylight
19 Apr - 14:54:51 10° SSW 14:59:22 86° WNW 15:03:43 10° NNE daylight
19 Apr - 16:39:55 10° WNW 16:42:33 15° NW 16:45:09 10° N daylight
19 Apr - 21:53:07 10° N 21:56:39 22° NE 22:00:18 10° E visible
19 Apr - 23:35:04 10° NW 23:39:29 59° WSW 23:44:13 10° SSE visible
20 Apr - 14:12:24 10° SSW 14:16:49 53° ESE 14:21:02 10° NE daylight
20 Apr - 15:56:05 10° W 15:59:36 23° NW 16:03:04 10° N daylight
20 Apr - 21:11:02 10° N 21:13:42 15° NE 21:16:25 10° ENE visible
20 Apr - 22:52:24 10° NNW 22:56:54 80° ENE 23:01:43 10° SE visible
21 Apr - 00:36:38 10° WNW 00:38:53 14° WSW 00:41:13 10° SW visible
21 Apr - 13:30:25 10° S 13:34:20 29° ESE 13:38:07 10° NE daylight
21 Apr - 15:12:40 10° WSW 15:16:46 35° NW 15:20:46 10° NNE daylight
21 Apr - 20:29:34 10° NNE 20:30:37 11° NNE 20:31:42 10° NE visible
21 Apr - 22:09:54 10° NNW 22:14:14 47° NE 22:18:50 10° SE visible
21 Apr - 23:52:53 10° WNW 23:56:32 24° WSW 00:00:22 10° SSW visible
22 Apr - 12:49:06 10° SSE 12:51:57 17° ESE 12:54:43 10° ENE daylight
22 Apr - 14:29:37 10° SW 14:34:03 60° NW 14:38:20 10° NNE daylight
22 Apr - 16:15:44 10° NW 16:17:29 12° NNW 16:19:13 10° N daylight
22 Apr - 21:27:32 10° NNW 21:31:28 29° NE 21:35:36 10° ESE visible
22 Apr - 23:09:49 10° NW 23:14:05 41° WSW 23:18:38 10° S visible
23 Apr - 13:46:56 10° SSW 13:51:25 78° ESE 13:55:45 10° NE daylight
23 Apr - 15:31:29 10° W 15:34:27 17° NW 15:37:24 10° N daylight
23 Apr - 20:45:18 10° N 20:48:35 20° NE 20:51:59 10° E visible
23 Apr - 22:27:03 10° NW 22:31:32 73° WSW 22:36:23 10° SSE visible
24 Apr - 13:04:38 10° S 13:08:53 42° ESE 13:12:59 10° NE daylight
24 Apr - 14:47:48 10° WSW 14:51:33 26° NW 14:55:13 10° NNE daylight
24 Apr - 20:03:20 10° N 20:05:35 14° NE 20:07:55 10° ENE visible
24 Apr - 21:44:28 10° NNW 21:48:56 66° NE 21:53:44 10° SE visible
24 Apr - 23:28:06 10° WNW 23:31:03 17° WSW 23:34:07 10° SSW visible
25 Apr - 12:22:51 10° SSE 12:26:27 24° ESE 12:29:57 10° ENE daylight
25 Apr - 14:04:31 10° WSW 14:08:45 42° NW 14:12:53 10° NNE daylight
25 Apr - 21:01:59 10° NNW 21:06:14 40° NE 21:10:44 10° ESE visible
25 Apr - 22:44:42 10° NW 22:48:39 29° WSW 22:52:51 10° S visible
26 Apr - 11:41:58 10° SE 11:44:06 13° ESE 11:46:12 10° ENE daylight
26 Apr - 13:21:36 10° SW 13:26:04 73° NW 13:30:23 10° NNE daylight
26 Apr - 15:07:07 10° WNW 15:09:22 14° NW 15:11:36 10° N daylight
26 Apr - 20:19:40 10° NNW 20:23:25 26° NE 20:27:22 10° E visible
26 Apr - 22:01:46 10° NW 22:06:10 50° WSW 22:10:54 10° SSE visible
27 Apr - 12:39:03 10° SSW 12:43:28 63° ESE 12:47:45 10° NE daylight
27 Apr - 14:23:07 10° W 14:26:22 20° NW 14:29:36 10° N daylight
27 Apr - 19:37:30 10° N 19:40:30 17° NE 19:43:37 10° E visible
27 Apr - 21:19:03 10° NW 21:23:36 88° WSW 21:28:30 10° SSE visible
27 Apr - 23:03:56 10° W 23:05:32 12° WSW 23:07:08 10° SW visible
28 Apr - 11:56:56 10° S 12:00:59 34° ESE 12:04:54 10° NE daylight
28 Apr - 13:39:35 10° WSW 13:43:30 31° NW 13:47:22 10° NNE daylight
28 Apr - 18:55:41 10° N 18:57:28 12° NNE 18:59:18 10° NE visible
28 Apr - 20:36:31 10° NNW 20:40:57 55° NE 20:45:44 10° SE visible
28 Apr - 22:19:45 10° WNW 22:23:11 21° WSW 22:26:48 10° SSW visible
